Simultaneous Nadir Overpasses (SNOs) Predictions

Prediction of SNOs between GOES-16 and METOP-C Satellite Orbit:

Table of predicted SNOs for the next 14.0 days since TLE Epoch: 8/15/2022
Index Date Time (GOES-16) GOES-16 Lat,Lon METOP-C Lat,Lon Distance(km) Time Diff (sec)
1 08/15/2022 14:27:47 -0.03, -75.20 -0.28, -74.02 134.49 80
2 08/17/2022 02:44:06 0.03, -75.20 -0.71, -78.62 389.83 80
3 08/18/2022 02:26:06 0.02, -75.20 0.36, -73.62 180.10 80
4 08/19/2022 14:42:18 -0.02, -75.23 0.61, -78.19 337.05 80
5 08/20/2022 14:24:17 -0.02, -75.24 -0.48, -73.19 233.11 80
6 08/22/2022 02:43:17 0.02, -75.24 -0.53, -77.79 290.48 80
7 08/23/2022 02:19:56 0.01, -75.25 0.55, -72.79 280.05 80
8 08/24/2022 14:41:28 -0.00, -75.28 0.46, -77.35 236.01 80
9 08/25/2022 14:18:08 -0.00, -75.29 -0.69, -72.36 334.75 80
10 08/27/2022 02:39:46 0.00, -75.30 -0.38, -76.95 187.80 80
11 08/28/2022 02:16:27 0.00, -75.32 0.76, -71.96 383.31 80
